FW1414 Weather Reports


Display with metric or nautical units.
time (UTC)temp
F
wind
direction
speed
MPH
gust
MPH
rain 1hr
in
rain 24hr
in
rain mn
in
humidity
%
barometer
mb
20260505124835 50 227 1.0 2.0 0.00 0.00 0.00 49 1012.2
20260505124333 50 227 2.0 3.0 0.00 0.00 0.00 51 1012.2
20260505123824 50 227 2.0 3.0 0.00 0.00 0.00 49 1012.2
20260505123322 50 219 0.0 1.0 0.00 0.00 0.00 48 1012.2
20260505122813 50 219 0.0 3.0 0.00 0.00 0.00 47 1012.2
20260505122310 50 219 2.0 3.0 0.00 0.00 0.00 47 1012.1
20260505121844 50 250 0.0 2.0 0.00 0.00 0.00 46 1012.0
20260505121321 51 250 0.0 2.0 0.00 0.00 0.00 46 1011.9
20260505120834 51 250 1.0 2.0 0.00 0.00 0.00 45 1011.8
20260505120314 51 250 1.0 2.0 0.00 0.00 0.00 45 1011.8
20260505115844 51 250 1.0 4.0 0.00 0.00 0.00 45 1011.8
20260505115324 51 303 1.0 5.0 0.00 0.00 0.00 43 1011.6
20260505114816 51 360 2.0 5.0 0.00 0.00 0.00 44 1011.6
20260505114313 52 302 1.0 3.0 0.00 0.00 0.00 43 1011.6
20260505113827 52 300 1.0 3.0 0.00 0.00 0.00 43 1011.8
20260505113325 52 284 0.0 3.0 0.00 0.00 0.00 43 1011.8
20260505112816 52 267 1.0 3.0 0.00 0.00 0.00 44 1011.9
20260505112314 53 267 2.0 3.0 0.00 0.00 0.00 43 1011.9
20260505111848 53 263 2.0 3.0 0.00 0.00 0.00 43 1012.0
20260505111325 53 296 1.0 3.0 0.00 0.00 0.00 41 1011.9
20260505110837 53 292 1.0 3.0 0.00 0.00 0.00 41 1012.0
20260505110314 54 296 0.0 2.0 0.00 0.00 0.00 40 1011.9
20260505101828 55 296 2.0 5.0 0.00 0.00 0.00 38 1011.8
20260505101347 55 319 2.0 8.0 0.00 0.00 0.00 38 1011.8
20260505100818 55 317 2.0 10.0 0.00 0.00 0.00 37 1011.7
20260505100316 55 316 4.0 10.0 0.00 0.00 0.00 37 1011.6
20260505095830 55 275 5.0 10.0 0.00 0.00 0.00 36 1011.6
20260505095327 55 305 4.0 8.0 0.00 0.00 0.00 36 1011.6
20260505094819 55 307 3.0 9.0 0.00 0.00 0.00 36 1011.7
20260505094317 55 309 5.0 9.0 0.00 0.00 0.00 36 1011.7
20260505093831 55 289 3.0 9.0 0.00 0.00 0.00 36 1011.6
20260505093311 55 296 4.0 9.0 0.00 0.00 0.00 35 1011.5
20260505092825 55 317 3.0 9.0 0.00 0.00 0.00 35 1011.6
20260505092322 55 290 2.0 10.0 0.00 0.00 0.00 34 1011.7
20260505091813 55 311 4.0 10.0 0.00 0.00 0.00 34 1011.6
20260505091311 55 312 3.0 7.0 0.00 0.00 0.00 35 1011.6
20260505090823 56 277 2.0 7.0 0.00 0.00 0.00 36 1011.6
20260505090322 56 282 4.0 7.0 0.00 0.00 0.00 35 1011.6
20260505085835 56 289 3.0 5.0 0.00 0.00 0.00 36 1011.6
20260505085312 56 277 2.0 9.0 0.00 0.00 0.00 36 1011.7
20260505084824 56 271 4.0 11.0 0.00 0.00 0.00 36 1011.7
20260505084322 56 293 6.0 11.0 0.00 0.00 0.00 35 1011.8
20260505083813 56 313 4.0 10.0 0.00 0.00 0.00 35 1012.0
20260505083310 57 240 4.0 12.0 0.00 0.00 0.00 35 1012.0
20260505082824 57 304 4.0 12.0 0.00 0.00 0.00 35 1012.0
20260505082344 57 257 5.0 11.0 0.00 0.00 0.00 35 1012.1
20260505081814 56 273 6.0 11.0 0.00 0.00 0.00 35 1012.2
20260505081311 56 282 5.0 11.0 0.00 0.00 0.00 34 1012.2
20260505080823 56 9 1.0 5.0 0.00 0.00 0.00 33 1012.3
20260505080322 56 9 2.0 10.0 0.00 0.00 0.00 33 1012.4
20260505075836 56 9 4.0 10.0 0.00 0.00 0.00 33 1012.3
20260505075335 56 24 2.0 6.0 0.00 0.00 0.00 33 1012.2
20260505074825 56 33 1.0 3.0 0.00 0.00 0.00 34 1012.2
20260505074322 56 76 0.0 4.0 0.00 0.00 0.00 33 1012.3
20260505073835 56 75 1.0 4.0 0.00 0.00 0.00 34 1012.2
20260505073311 56 78 0.0 2.0 0.00 0.00 0.00 33 1012.2
20260505072824 57 78 0.0 2.0 0.00 0.00 0.00 32 1012.0
20260505072321 58 78 0.0 3.0 0.00 0.00 0.00 32 1011.8
20260505071836 58 78 0.0 3.0 0.00 0.00 0.00 31 1011.8
20260505071316 58 46 2.0 4.0 0.00 0.00 0.00 30 1011.8
20260505070846 59 33 1.0 4.0 0.00 0.00 0.00 30 1011.8
20260505070344 59 49 2.0 4.0 0.00 0.00 0.00 29 1012.0
20260505065817 59 77 1.0 7.0 0.00 0.00 0.00 29 1012.0
20260505065315 59 185 3.0 7.0 0.00 0.00 0.00 29 1012.2
20260505064827 60 236 2.0 9.0 0.00 0.00 0.00 28 1012.2
20260505064325 60 259 4.0 9.0 0.00 0.00 0.00 29 1012.0
20260505063816 60 309 5.0 13.0 0.00 0.00 0.00 28 1011.9
20260505063313 60 227 5.0 13.0 0.00 0.00 0.00 28 1011.8
20260505062826 60 239 5.0 12.0 0.00 0.00 0.00 28 1011.7
20260505062324 60 305 4.0 15.0 0.00 0.00 0.00 28 1011.6
20260505061814 60 296 6.0 15.0 0.00 0.00 0.00 28 1011.7
20260505061336 60 287 7.0 14.0 0.00 0.00 0.00 28 1011.6
20260505060849 61 260 4.0 17.0 0.00 0.00 0.00 28 1011.6
20260505060325 61 209 7.0 17.0 0.00 0.00 0.00 28 1011.6
20260505055837 60 264 5.0 16.0 0.00 0.00 0.00 29 1011.6
20260505055335 60 203 5.0 12.0 0.00 0.00 0.00 29 1011.6
20260505054827 60 244 3.0 11.0 0.00 0.00 0.00 31 1011.8
20260505054325 60 205 5.0 11.0 0.00 0.00 0.00 31 1011.8
20260505053816 60 279 3.0 7.0 0.00 0.00 0.00 31 1011.6
20260505053313 61 236 3.0 11.0 0.00 0.00 0.00 31 1011.4
20260505052826 61 232 4.0 12.0 0.00 0.00 0.00 31 1011.3
20260505052345 61 263 6.0 12.0 0.00 0.00 0.00 32 1011.2
20260505051817 61 223 3.0 8.0 0.00 0.00 0.00 32 1011.3
20260505051314 61 210 4.0 8.0 0.00 0.00 0.00 32 1011.2
20260505050825 61 211 4.0 8.0 0.00 0.00 0.00 32 1011.2
20260505050323 61 190 3.0 5.0 0.00 0.00 0.00 32 1011.3
20260505041320 61 248 4.0 7.0 0.00 0.00 0.00 32 1011.2
20260505040810 61 207 3.0 4.0 0.00 0.00 0.00 31 1011.3
20260505040329 61 215 2.0 6.0 0.00 0.00 0.00 30 1011.3
20260505035821 62 212 2.0 6.0 0.00 0.00 0.00 30 1011.4
20260505035320 62 219 3.0 7.0 0.00 0.00 0.00 31 1011.4
20260505034810 62 224 3.0 7.0 0.00 0.00 0.00 30 1011.4
20260505034329 62 251 4.0 6.0 0.00 0.00 0.00 30 1011.6
20260505033821 62 206 3.0 6.0 0.00 0.00 0.00 30 1011.6
20260505033319 62 212 3.0 8.0 0.00 0.00 0.00 30 1011.4
20260505032809 62 217 4.0 9.0 0.00 0.00 0.00 28 1011.3
20260505032328 62 239 5.0 10.0 0.00 0.00 0.00 29 1011.3
20260505031820 62 223 5.0 10.0 0.00 0.00 0.00 29 1011.4
20260505031317 63 244 3.0 7.0 0.00 0.00 0.00 28 1011.3
20260505030809 63 253 1.0 6.0 0.00 0.00 0.00 27 1011.2
20260505030351 63 232 3.0 9.0 0.00 0.00 0.00 27 1011.2
20260505025822 63 275 4.0 9.0 0.00 0.00 0.00 26 1011.1
20260505025342 63 234 2.0 5.0 0.00 0.00 0.00 26 1011.1
20260505024813 64 360 3.0 5.0 0.00 0.00 0.00 25 1011.0
20260505024310 64 360 2.0 9.0 0.00 0.00 0.00 25 1011.0
20260505023822 64 360 4.0 10.0 0.00 0.00 0.00 24 1010.9
20260505023324 64 360 4.0 13.0 0.00 0.00 0.00 24 1010.9
20260505022839 64 360 6.0 13.0 0.00 0.00 0.00 24 1010.8
20260505022315 64 360 5.0 10.0 0.00 0.00 0.00 24 1010.8
20260505021828 64 360 3.0 8.0 0.00 0.00 0.00 24 1010.8
20260505021347 64 360 3.0 9.0 0.00 0.00 0.00 23 1010.8
20260505020817 65 360 4.0 10.0 0.00 0.00 0.00 23 1011.0
20260505020315 65 360 3.0 10.0 0.00 0.00 0.00 22 1010.8
20260505015827 65 360 2.0 8.0 0.00 0.00 0.00 22 1010.8
20260505015324 65 360 4.0 8.0 0.00 0.00 0.00 22 1010.8
20260505014815 66 360 4.0 13.0 0.00 0.00 0.00 21 1010.7
20260505014313 66 360 7.0 13.0 0.00 0.00 0.00 21 1010.6
20260505013826 66 360 5.0 16.0 0.00 0.00 0.00 21 1010.6
20260505013325 66 360 6.0 16.0 0.00 0.00 0.00 20 1010.5
20260505012815 67 360 5.0 15.0 0.00 0.00 0.00 19 1010.4
20260505012313 67 360 5.0 12.0 0.00 0.00 0.00 19 1010.4
20260505011825 67 360 5.0 14.0 0.00 0.00 0.00 19 1010.2
20260505011323 67 360 6.0 14.0 0.00 0.00 0.00 18 1010.3
20260505010837 67 360 5.0 15.0 0.00 0.00 0.00 18 1010.3
20260505010335 68 360 7.0 15.0 0.00 0.00 0.00 19 1010.2
20260505005826 68 360 4.0 15.0 0.00 0.00 0.00 19 1010.2
20260505005324 68 360 7.0 15.0 0.00 0.00 0.00 18 1010.2
20260505004814 69 360 4.0 10.0 0.00 0.00 0.00 18 1010.2
20260505004312 69 360 3.0 20.0 0.00 0.00 0.00 18 1010.2
20260505003825 69 360 5.0 20.0 0.00 0.00 0.00 18 1010.3
20260505003327 69 265 7.0 15.0 0.00 0.00 0.00 17 1010.4
20260505002817 69 293 6.0 15.0 0.00 0.00 0.00 17 1010.4
20260505002316 69 292 5.0 13.0 0.00 0.00 0.00 17 1010.4
20260505001827 69 267 7.0 14.0 0.00 0.00 0.00 17 1010.4
20260505001325 69 360 8.0 20.0 0.00 0.00 0.00 17 1010.3
20260505000816 69 360 12.0 20.0 0.00 0.00 0.00 16 1010.2
20260505000314 70 360 7.0 21.0 0.00 0.00 0.00 17 1010.3
20260504235826 70 360 9.0 21.0 0.00 0.00 0.00 17 1010.5
20260504235323 70 360 4.0 16.0 0.00 0.00 0.00 17 1010.4
20260504234814 70 360 8.0 16.0 0.00 0.00 0.00 17 1010.4
20260504234312 70 360 9.0 15.0 0.00 0.00 0.00 16 1010.4
20260504233824 70 360 5.0 14.0 0.00 0.00 0.00 18 1010.6
20260504233322 70 360 8.0 14.0 0.00 0.00 0.00 17 1010.4
20260504232813 71 280 6.0 13.0 0.00 0.00 0.00 18 1010.6
20260504232310 71 259 3.0 19.0 0.00 0.00 0.00 19 1010.6
20260504231845 72 240 7.0 19.0 0.00 0.00 0.00 17 1010.6
20260504231321 72 205 6.0 15.0 0.00 0.00 0.00 18 1010.6
20260504230812 72 223 7.0 25.0 0.00 0.00 0.00 20 1010.6
20260504230315 71 360 13.0 25.0 0.00 0.00 0.00 19 1010.6
20260504225828 71 360 10.0 16.0 0.00 0.00 0.00 18 1010.7
20260504225325 71 360 6.0 15.0 0.00 0.00 0.00 19 1010.8
20260504224816 70 360 4.0 15.0 0.00 0.00 0.00 19 1010.8
20260504224314 70 360 7.0 14.0 0.00 0.00 0.00 19 1010.7
20260504223826 70 360 8.0 14.0 0.00 0.00 0.00 19 1011.0
20260504223324 69 360 6.0 19.0 0.00 0.00 0.00 19 1011.0
20260504222815 69 360 9.0 19.0 0.00 0.00 0.00 18 1011.1
20260504222313 69 360 4.0 14.0 0.00 0.00 0.00 20 1011.0
20260504221826 69 360 8.0 14.0 0.00 0.00 0.00 19 1011.0
20260504221324 69 213 6.0 13.0 0.00 0.00 0.00 18 1011.2
20260504220838 70 282 6.0 16.0 0.00 0.00 0.00 18 1011.3
20260504220315 70 269 6.0 16.0 0.00 0.00 0.00 17 1011.3
20260504215827 70 322 6.0 16.0 0.00 0.00 0.00 19 1011.2
20260504215326 71 282 7.0 16.0 0.00 0.00 0.00 17 1011.4
20260504214817 71 258 4.0 13.0 0.00 0.00 0.00 17 1011.4
20260504214316 71 217 5.0 12.0 0.00 0.00 0.00 18 1011.5
20260504213828 70 219 3.0 14.0 0.00 0.00 0.00 18 1011.6
20260504213326 70 161 6.0 14.0 0.00 0.00 0.00 17 1011.7
20260504212821 70 294 8.0 18.0 0.00 0.00 0.00 16 1011.7
20260504212318 70 306 8.0 18.0 0.00 0.00 0.00 17 1011.8
20260504211810 70 270 6.0 17.0 0.00 0.00 0.00 17 1011.9
20260504211328 70 237 8.0 15.0 0.00 0.00 0.00 16 1012.0
20260504210819 70 217 8.0 23.0 0.00 0.00 0.00 16 1012.1
20260504210317 70 239 12.0 23.0 0.00 0.00 0.00 14 1012.2
20260504205851 70 223 8.0 18.0 0.00 0.00 0.00 15 1012.2
20260504205349 70 209 13.0 19.0 0.00 0.00 0.00 15 1012.3
20260504204821 70 190 9.0 19.0 0.00 0.00 0.00 16 1012.3
20260504204340 71 233 10.0 18.0 0.00 0.00 0.00 14 1012.4
20260504203832 70 217 6.0 18.0 0.00 0.00 0.00 14 1012.5
20260504203310 70 225 7.0 19.0 0.00 0.00 0.00 14 1012.6
20260504202821 70 223 10.0 19.0 0.00 0.00 0.00 14 1012.7
20260504202319 70 251 8.0 19.0 0.00 0.00 0.00 15 1012.7
20260504201811 70 232 12.0 20.0 0.00 0.00 0.00 15 1012.8
20260504201330 70 252 9.0 20.0 0.00 0.00 0.00 15 1012.8
20260504200843 70 206 8.0 19.0 0.00 0.00 0.00 16 1012.8
20260504200320 70 185 4.0 14.0 0.00 0.00 0.00 16 1012.6
20260504195811 71 258 8.0 14.0 0.00 0.00 0.00 16 1012.8
20260504195330 71 263 10.0 18.0 0.00 0.00 0.00 16 1012.8
20260504194821 71 246 7.0 18.0 0.00 0.00 0.00 18 1012.6
20260504194341 71 284 9.0 17.0 0.00 0.00 0.00 17 1013.0
20260504193810 71 262 9.0 17.0 0.00 0.00 0.00 18 1013.0
20260504193330 70 224 8.0 19.0 0.00 0.00 0.00 22 1012.9
20260504192821 70 205 5.0 20.0 0.00 0.00 0.00 21 1013.0
20260504192322 70 225 9.0 20.0 0.00 0.00 0.00 19 1013.0
20260504191815 70 219 7.0 16.0 0.00 0.00 0.00 21 1013.1
20260504191313 69 220 8.0 15.0 0.00 0.00 0.00 22 1013.2
20260504190825 69 186 6.0 16.0 0.00 0.00 0.00 19 1013.0
20260504190324 69 220 4.0 16.0 0.00 0.00 0.00 21 1013.1
20260504185815 69 232 10.0 16.0 0.00 0.00 0.00 21 1013.1
20260504185312 69 184 7.0 19.0 0.00 0.00 0.00 20 1013.1
20260504184824 69 196 8.0 19.0 0.00 0.00 0.00 21 1013.2
20260504184322 69 212 9.0 19.0 0.00 0.00 0.00 20 1013.3
20260504183813 69 215 4.0 14.0 0.00 0.00 0.00 21 1013.4
20260504183312 69 280 7.0 14.0 0.00 0.00 0.00 21 1012.9
20260504182824 69 240 8.0 15.0 0.00 0.00 0.00 20 1013.4
20260504182322 69 239 7.0 15.0 0.00 0.00 0.00 21 1013.5
20260504181812 69 193 5.0 11.0 0.00 0.00 0.00 21 1013.4
20260504181332 68 202 7.0 13.0 0.00 0.00 0.00 23 1013.5
20260504180823 68 173 4.0 14.0 0.00 0.00 0.00 22 1013.7
20260504180321 68 192 7.0 14.0 0.00 0.00 0.00 24 1013.6
20260504175812 68 119 4.0 11.0 0.00 0.00 0.00 28 1013.8
20260504175332 68 247 3.0 12.0 0.00 0.00 0.00 27 1014.0
20260504174846 68 228 7.0 12.0 0.00 0.00 0.00 25 1014.2
20260504174323 68 180 3.0 14.0 0.00 0.00 0.00 27 1014.2
20260504173814 68 223 5.0 14.0 0.00 0.00 0.00 28 1014.3
20260504173311 68 242 6.0 10.0 0.00 0.00 0.00 30 1014.2
20260504172823 67 221 5.0 10.0 0.00 0.00 0.00 33 1014.0
20260504172321 67 135 4.0 9.0 0.00 0.00 0.00 31 1014.1
20260504171816 66 155 3.0 8.0 0.00 0.00 0.00 33 1014.4
20260504171314 65 207 4.0 10.0 0.00 0.00 0.00 33 1014.3
20260504170826 65 103 5.0 10.0 0.00 0.00 0.00 31 1014.2
20260504170346 65 182 1.0 6.0 0.00 0.00 0.00 34 1014.3
20260504160326 63 200 2.0 7.0 0.00 0.00 0.00 43 1014.9
20260504150813 57 190 3.0 8.0 0.00 0.00 0.00 58 1015.5
20260504150311 57 236 5.0 10.0 0.00 0.00 0.00 59 1015.4
20260504141324 53 360 2.0 6.0 0.00 0.00 0.00 67 1015.5
20260504140815 52 360 2.0 4.0 0.00 0.00 0.00 68 1015.5
20260504140312 52 195 2.0 4.0 0.00 0.00 0.00 69 1015.5
20260504130816 47 246 1.0 2.0 0.00 0.00 0.00 70 1015.1
20260504130336 47 246 0.0 0.0 0.00 0.00 0.00 70 1015.3